Orbital Elements at Epoch 2459200.5 (2020-Dec-17.0) TDB
Reference: JPL 23 (heliocentric ecliptic J2000)
Element | Value | Uncertainty (1-sigma) | Units |
e | .1379318999145694 | 3.3174e-08 | |
a | 2.611945211502177 | 8.86e-09 | au |
q | 2.25167464600692 | 8.647e-08 | au |
i | 2.511037276725496 | 3.6725e-06 | deg |
node | 315.4359159424367 | 0.00010436 | deg |
peri | .3193141375637004 | 0.00010564 | deg |
M | 60.50123717603824 | 1.6891e-05 | deg |
tp | 2458941.376813321434 (2020-Apr-01.87681332) | 7.225e-05 | TDB |
period | 1541.858506675783 4.22 | 7.8453e-06 2.148e-08 | d yr |
n | .2334844594632442 | 1.188e-09 | deg/d |
Q | 2.972215776997435 | 1.0082e-08 | au |
|
| | Orbit Determination Parameters
Additional Information
|